Home   Weather   Bordeaux   Past weeks

Flag for France Past Weather in Bordeaux, Aquitaine, France — Yesterday and Last 2 Weeks

Now
52 °F

Sunny.


Feels Like: 48 °F
Forecast: 33 / 55 °F
Wind: 12 mph from Northeast

Location: Bordeaux / Merignac

Current Time: Apr 26, 2017 at 8:18:09 pm

Latest Report: Apr 26, 2017 at 7:30 pm


Visibility: 10 mi

Pressure: 29.98 "Hg

Humidity: 47%

Dew Point: 32 °F

Location of BordeauxLocation

Past Weather in Bordeaux — Graph

°F

Bordeaux Temperature Yesterday

Maximum temperature yesterday: 57 °F (at 3:30 pm)
Minimum temperature yesterday: 46 °F (at 10:30 pm)
Average temperature yesterday: 53 °F

High & Low Weather Summary for the Past Weeks

 TemperatureHumidityPressure
High77 °F (Apr 22, 5:00 pm)100% (Apr 14, 6:30 am)30.45 "Hg (Apr 14, 6:30 am)
Low39 °F (Apr 20, 7:00 am)11% (Apr 21, 6:30 pm)29.77 "Hg (Apr 25, 2:30 pm)
Average56 °F55%30.16 "Hg
* Reported Apr 11 7:00 pm — Apr 26 7:00 pm, Bordeaux, Weather by CustomWeather, © 2017

Note: Actual official high and low records may vary slightly from our data, if they occured in-between our weather recording intervals... More about our weather records

Advertising

Bordeaux Weather History for the Previous 24 Hours

Scroll right to see more
 ConditionsComfort  
Time TempWeatherWind HumidityBarometerVisibility
7:00 pm
Wed, Apr 26
52 °FSunny.15 mph47%29.98 "Hg10 mi
6:30 pm55 °FRefreshingly cool.10 mph31%29.98 "HgN/A
6:00 pm55 °FPassing clouds.8 mph28%29.98 "HgN/A
5:30 pm57 °FPassing clouds.7 mph31%29.95 "HgN/A
5:00 pm54 °FPassing clouds.9 mph35%29.98 "HgN/A
4:30 pm55 °FPassing clouds.8 mph36%29.95 "HgN/A
4:00 pm55 °FPassing clouds.10 mph31%29.98 "HgN/A
3:30 pm54 °FPassing clouds.12 mph30%29.98 "HgN/A
3:00 pm54 °FPassing clouds.9 mph33%29.95 "HgN/A
2:00 pm54 °FPassing clouds.9 mph38%29.95 "HgN/A
1:30 pm52 °FPassing clouds.10 mph44%29.95 "HgN/A
1:00 pm54 °FBroken clouds.10 mph41%29.95 "HgN/A
12:30 pm52 °FBroken clouds.12 mph50%29.98 "HgN/A
12:00 pm52 °FBroken clouds.12 mph50%29.95 "HgN/A
11:30 am50 °FScattered clouds.9 mph54%29.95 "HgN/A
11:00 am48 °FPassing clouds.9 mph62%29.95 "HgN/A
10:30 am46 °FPartly sunny.10 mph62%29.95 "HgN/A
10:00 am46 °FPartly sunny.12 mph66%29.95 "HgN/A
9:30 am45 °FSunny.12 mph66%29.95 "Hg10 mi
9:00 am45 °FSunny.9 mph66%29.95 "Hg10 mi
8:30 am45 °FSunny.12 mph66%29.92 "Hg10 mi
8:00 am45 °FSunny.12 mph66%29.92 "Hg10 mi
7:30 am43 °FPartly sunny.13 mph71%29.92 "HgN/A
7:00 am43 °FMostly cloudy.10 mph76%29.89 "HgN/A
6:30 am43 °FMostly cloudy.10 mph76%29.89 "HgN/A
6:00 am43 °FClear.9 mph81%29.89 "Hg10 mi
5:30 am43 °FClear.7 mph81%29.86 "Hg10 mi
5:00 am43 °FLight rain. Overcast.12 mph81%29.86 "HgN/A
4:30 am43 °FClear.12 mph81%29.86 "Hg10 mi
4:00 am43 °FClear.12 mph81%29.86 "Hg10 mi
3:30 am43 °FOvercast.12 mph81%29.86 "HgN/A
3:00 am45 °FMostly cloudy.13 mph76%29.86 "HgN/A
2:30 am45 °FMostly cloudy.10 mph76%29.86 "HgN/A
2:00 am45 °FClear.10 mph76%29.89 "Hg10 mi
1:30 am45 °FOvercast.10 mph81%29.86 "HgN/A
1:00 am45 °FOvercast.12 mph81%29.86 "HgN/A
12:30 am45 °FOvercast.12 mph76%29.86 "HgN/A
12:00 am45 °FOvercast.10 mph81%29.86 "HgN/A
11:30 pm
Tue, Apr 25
46 °FOvercast.13 mph76%29.86 "HgN/A
11:00 pm46 °FOvercast.12 mph82%29.86 "HgN/A
10:30 pm46 °FOvercast.14 mph82%29.86 "HgN/A
9:30 pm48 °FMostly cloudy.10 mph82%29.83 "HgN/A
9:00 pm48 °FOvercast.14 mph87%29.80 "HgN/A
8:30 pm50 °FOvercast.15 mph82%29.80 "HgN/A
8:00 pm52 °FOvercast.16 mph82%29.80 "HgN/A
Weather by CustomWeather, © 2017

See weather overviewHow to use our weather pages